| time (UTC) | temp F | wind direction | speed knots | gust knots | rain 1hr in | rain 24hr in | rain mn in | humidity % | barometer mb |
| 20260504081603 | 46 | 0 | 0.0 | 0.0 | 0.00 | 0.00 | 0.00 | 79 | 1017.5 |
| 20260504044553 | 53 | 0 | 0.0 | 2.6 | 0.00 | 0.00 | 0.00 | 65 | 1017.8 |
| 20260504043053 | 53 | 177 | 0.9 | 3.5 | 0.00 | 0.00 | 0.00 | 64 | 1017.5 |
| 20260504041551 | 53 | 196 | 1.7 | 4.3 | 0.00 | 0.00 | 0.00 | 65 | 1017.7 |
| 20260504034601 | 54 | 217 | 0.9 | 3.5 | 0.00 | 0.00 | 0.00 | 62 | 1017.7 |
| 20260504033128 | 54 | 215 | 0.9 | 3.5 | 0.00 | 0.00 | 0.00 | 62 | 1017.7 |
| 20260504031603 | 55 | 211 | 1.7 | 6.1 | 0.00 | 0.00 | 0.00 | 60 | 1017.7 |
| 20260504030104 | 56 | 217 | 1.7 | 3.5 | 0.00 | 0.00 | 0.00 | 60 | 1017.6 |
| 20260504024552 | 56 | 0 | 0.0 | 3.5 | 0.00 | 0.00 | 0.00 | 60 | 1017.6 |
| 20260504023102 | 57 | 198 | 0.9 | 3.5 | 0.00 | 0.00 | 0.00 | 58 | 1017.4 |
| 20260504021559 | 58 | 174 | 1.7 | 4.3 | 0.00 | 0.00 | 0.00 | 56 | 1017.2 |
| 20260504020100 | 58 | 0 | 0.9 | 3.5 | 0.00 | 0.00 | 0.00 | 56 | 1017.0 |
| 20260504014552 | 58 | 192 | 0.9 | 4.3 | 0.00 | 0.00 | 0.00 | 55 | 1016.7 |
| 20260504013107 | 59 | 235 | 0.9 | 5.2 | 0.00 | 0.00 | 0.00 | 55 | 1016.5 |
| 20260504011551 | 60 | 0 | 0.9 | 2.6 | 0.00 | 0.00 | 0.00 | 53 | 1016.4 |
| 20260504010109 | 61 | 172 | 0.9 | 4.3 | 0.00 | 0.00 | 0.00 | 50 | 1016.4 |
| 20260504004610 | 62 | 0 | 0.9 | 2.6 | 0.00 | 0.00 | 0.00 | 48 | 1016.3 |
| 20260504003054 | 63 | 0 | 0.9 | 4.3 | 0.00 | 0.00 | 0.00 | 47 | 1016.0 |
| 20260504001604 | 64 | 176 | 0.9 | 4.3 | 0.00 | 0.00 | 0.00 | 46 | 1015.8 |
| 20260504000058 | 65 | 148 | 0.9 | 4.3 | 0.00 | 0.00 | 0.00 | 45 | 1015.7 |
| 20260503234553 | 66 | 236 | 0.9 | 7.0 | 0.00 | 0.00 | 0.00 | 44 | 1015.6 |
| 20260503233059 | 67 | 146 | 1.7 | 7.8 | 0.00 | 0.00 | 0.00 | 43 | 1015.6 |
| 20260503231555 | 67 | 170 | 1.7 | 8.7 | 0.00 | 0.00 | 0.00 | 41 | 1015.6 |
| 20260503224550 | 69 | 194 | 2.6 | 8.7 | 0.00 | 0.00 | 0.00 | 39 | 1015.8 |
| 20260503223058 | 69 | 155 | 3.5 | 11.3 | 0.00 | 0.00 | 0.00 | 37 | 1015.8 |
| 20260503221552 | 69 | 190 | 2.6 | 10.4 | 0.00 | 0.00 | 0.00 | 38 | 1015.9 |
| 20260503220054 | 70 | 145 | 2.6 | 8.7 | 0.00 | 0.00 | 0.00 | 37 | 1016.1 |
| 20260503214554 | 69 | 0 | 4.3 | 13.0 | 0.00 | 0.00 | 0.00 | 37 | 1016.0 |
| 20260503213103 | 69 | 129 | 1.7 | 10.4 | 0.00 | 0.00 | 0.00 | 36 | 1016.2 |
| 20260503211551 | 69 | 165 | 4.3 | 10.4 | 0.00 | 0.00 | 0.00 | 36 | 1016.3 |
| 20260503210100 | 69 | 159 | 3.5 | 13.9 | 0.00 | 0.00 | 0.00 | 34 | 1016.5 |
| 20260503204552 | 69 | 161 | 4.3 | 12.2 | 0.00 | 0.00 | 0.00 | 38 | 1016.7 |
| 20260503203101 | 68 | 142 | 2.6 | 8.7 | 0.00 | 0.00 | 0.00 | 37 | 1016.9 |
| 20260503201552 | 69 | 180 | 3.5 | 8.7 | 0.00 | 0.00 | 0.00 | 36 | 1017.3 |
| 20260503200100 | 68 | 186 | 1.7 | 10.4 | 0.00 | 0.00 | 0.00 | 38 | 1017.6 |
| 20260503194551 | 68 | 141 | 4.3 | 12.2 | 0.00 | 0.00 | 0.00 | 40 | 1017.9 |
| 20260503193101 | 67 | 138 | 3.5 | 10.4 | 0.00 | 0.00 | 0.00 | 39 | 1018.2 |
| 20260503191608 | 67 | 163 | 4.3 | 13.9 | 0.00 | 0.00 | 0.00 | 41 | 1018.3 |
| 20260503190054 | 66 | 152 | 8.7 | 12.2 | 0.00 | 0.00 | 0.00 | 40 | 1018.6 |
| 20260503184601 | 66 | 246 | 6.1 | 12.2 | 0.00 | 0.00 | 0.00 | 40 | 1018.9 |
| 20260503183112 | 66 | 88 | 4.3 | 13.0 | 0.00 | 0.00 | 0.00 | 41 | 1019.0 |
| 20260503181555 | 66 | 227 | 1.7 | 10.4 | 0.00 | 0.00 | 0.00 | 41 | 1019.0 |
| 20260503180055 | 64 | 0 | 1.7 | 8.7 | 0.00 | 0.00 | 0.00 | 44 | 1019.0 |
| 20260503174548 | 64 | 163 | 5.2 | 8.7 | 0.00 | 0.00 | 0.00 | 44 | 1019.3 |
| 20260503173113 | 63 | 319 | 3.5 | 7.8 | 0.00 | 0.00 | 0.00 | 44 | 1019.5 |
| 20260503171554 | 63 | 123 | 0.9 | 7.0 | 0.00 | 0.00 | 0.00 | 47 | 1019.7 |
| 20260503120108 | 42 | 0 | 0.0 | 0.9 | 0.00 | 0.00 | 0.00 | 90 | 1020.5 |
| 20260503100104 | 38 | 0 | 0.0 | 0.0 | 0.00 | 0.00 | 0.00 | 90 | 1018.7 |